{"data":{"norad_id":43679,"epoch":"2026-09-19T08:46:44.603328Z","epoch_age_seconds":152809,"freshness":"FRESH","line1":"1 43679U 18084J   26262.36579402  .00004044  00000+0  20304-3 0  9997","line2":"2 43679  98.0375 122.1533 0001892 159.9693 200.1614 15.17934405431755","mean_motion":15.17934405,"eccentricity":0.0001892,"inclination_deg":98.0375,"raan_deg":122.1533,"arg_perigee_deg":159.9693,"mean_anomaly_deg":200.1614,"bstar":0.00020304,"rev_number":43175,"period_min":94.86575936725,"perigee_km":510.78068217985,"apogee_km":513.38794192433,"semimajor_km":6890.2213120521,"source":"CELESTRAK","updated_at":"2026-09-20T09:00:14.368236Z"}}